SAS385 ENVA-ENGM

Flight info

Callsign SAS385
Flight time 0h 36m
Altitude 33000
Route UTUNA DCT BELGU
Aircraft A319/M-SDE3FGHIRWY/LB1

Departure

Time 2026-04-30 21:03
Airport Trondheim Airport, Værnes (ENVA)

Arrival

Time 2026-04-30 21:39
Airport Oslo-Gardermoen International Airport (ENGM)
Time Latitude Longitude Altitude Speed Heading
2026-04-30 20:41 63.45496 10.91823 44 ft 0 kts 181°
2026-04-30 20:53 63.45499 10.91823 44 ft 3 kts 181°
2026-04-30 20:54 63.45534 10.91826 42 ft 1 kts 180°
2026-04-30 20:57 63.45533 10.91827 42 ft 0 kts 173°
2026-04-30 20:57 63.45532 10.91833 42 ft 1 kts 143°
2026-04-30 20:58 63.45555 10.92041 43 ft 12 kts 88°
2026-04-30 20:58 63.45556 10.92230 45 ft 13 kts 89°
2026-04-30 20:58 63.45557 10.92369 46 ft 1 kts 88°
2026-04-30 20:58 63.45559 10.92403 46 ft 2 kts 79°
2026-04-30 20:59 63.45592 10.92467 40 ft 10 kts 75°
2026-04-30 20:59 63.45595 10.92646 48 ft 12 kts 90°
2026-04-30 21:00 63.45593 10.93120 51 ft 18 kts 90°
2026-04-30 21:00 63.45592 10.93720 58 ft 17 kts 89°
2026-04-30 21:01 63.45673 10.93996 60 ft 13 kts 43°
2026-04-30 21:01 63.45732 10.94122 64 ft 8 kts 44°
2026-04-30 21:01 63.45759 10.94059 64 ft 0 kts 268°
2026-04-30 21:02 63.45758 10.94043 63 ft 6 kts 268°
2026-04-30 21:02 63.45758 10.93370 54 ft 82 kts 270°
2026-04-30 21:02 63.45760 10.91569 39 ft 147 kts 270°
2026-04-30 21:02 63.45767 10.89133 503 ft 158 kts 270°
2026-04-30 21:03 63.45775 10.86667 1217 ft 159 kts 270°
2026-04-30 21:03 63.45772 10.84186 1939 ft 164 kts 270°
2026-04-30 21:03 63.45763 10.81473 2356 ft 185 kts 270°
2026-04-30 21:03 63.45767 10.78413 2735 ft 208 kts 270°
2026-04-30 21:04 63.45772 10.75091 3362 ft 222 kts 269°
2026-04-30 21:04 63.45773 10.71625 4416 ft 223 kts 268°
2026-04-30 21:04 63.45772 10.64767 6758 ft 217 kts 268°
2026-04-30 21:05 63.45515 10.61326 7434 ft 238 kts 246°
2026-04-30 21:05 63.44394 10.58480 8210 ft 257 kts 216°
2026-04-30 21:05 63.42622 10.57441 9167 ft 277 kts 186°
2026-04-30 21:05 63.40670 10.57679 10170 ft 284 kts 181°
2026-04-30 21:06 63.38681 10.58116 10760 ft 302 kts 180°
2026-04-30 21:06 63.36516 10.58648 11126 ft 324 kts 180°
2026-04-30 21:06 63.34233 10.59227 11795 ft 334 kts 180°
2026-04-30 21:06 63.31904 10.59811 12586 ft 339 kts 180°
2026-04-30 21:07 63.29547 10.60378 13421 ft 343 kts 180°
2026-04-30 21:07 63.27155 10.60929 14227 ft 348 kts 181°
2026-04-30 21:07 63.24735 10.61464 14944 ft 352 kts 181°
2026-04-30 21:07 63.22287 10.61993 15700 ft 355 kts 181°
2026-04-30 21:08 63.19821 10.62526 16461 ft 358 kts 181°
2026-04-30 21:08 63.17334 10.63064 17192 ft 361 kts 181°
2026-04-30 21:08 63.14856 10.63601 17920 ft 364 kts 181°
2026-04-30 21:08 63.12318 10.64149 18641 ft 368 kts 181°
2026-04-30 21:09 63.09761 10.64695 19256 ft 372 kts 181°
2026-04-30 21:09 63.07165 10.65248 19844 ft 376 kts 181°
2026-04-30 21:09 63.04544 10.65809 20463 ft 381 kts 181°
2026-04-30 21:09 63.01890 10.66377 21079 ft 384 kts 181°
2026-04-30 21:10 62.99221 10.66951 21679 ft 389 kts 181°
2026-04-30 21:10 62.96511 10.67532 22273 ft 392 kts 181°
2026-04-30 21:10 62.93830 10.68106 22795 ft 397 kts 181°
2026-04-30 21:10 62.91060 10.68698 23387 ft 401 kts 181°
2026-04-30 21:11 62.88267 10.69295 23900 ft 405 kts 181°
2026-04-30 21:11 62.85454 10.69893 24371 ft 408 kts 181°
2026-04-30 21:11 62.82619 10.70307 24855 ft 406 kts 187°
2026-04-30 21:11 62.79797 10.70131 25417 ft 403 kts 189°
2026-04-30 21:12 62.76990 10.69937 25804 ft 407 kts 189°
2026-04-30 21:12 62.74144 10.69731 26205 ft 412 kts 188°
2026-04-30 21:12 62.71265 10.69519 26659 ft 415 kts 188°
2026-04-30 21:12 62.68358 10.69516 27118 ft 422 kts 183°
2026-04-30 21:13 62.65414 10.69966 27583 ft 426 kts 182°
2026-04-30 21:13 62.62489 10.70489 28034 ft 430 kts 181°
2026-04-30 21:13 62.59501 10.71068 28500 ft 433 kts 181°
2026-04-30 21:13 62.56486 10.71668 28965 ft 436 kts 181°
2026-04-30 21:14 62.53456 10.72272 29402 ft 439 kts 181°
2026-04-30 21:14 62.50403 10.72867 29820 ft 442 kts 181°
2026-04-30 21:14 62.47331 10.73447 30242 ft 445 kts 181°
2026-04-30 21:14 62.44234 10.74016 30601 ft 448 kts 181°
2026-04-30 21:15 62.41123 10.74583 30934 ft 450 kts 181°
2026-04-30 21:15 62.37993 10.75153 31274 ft 453 kts 181°
2026-04-30 21:15 62.34875 10.75728 31614 ft 456 kts 181°
2026-04-30 21:15 62.31710 10.76321 31946 ft 459 kts 181°
2026-04-30 21:16 62.28525 10.76921 32356 ft 459 kts 181°
2026-04-30 21:16 62.25349 10.77517 32837 ft 458 kts 181°
2026-04-30 21:16 62.22169 10.78107 33206 ft 458 kts 181°
2026-04-30 21:16 62.19007 10.78690 33291 ft 452 kts 181°
2026-04-30 21:17 62.15920 10.79263 33292 ft 441 kts 181°
2026-04-30 21:17 62.12884 10.79816 33290 ft 436 kts 181°
2026-04-30 21:17 62.06888 10.80879 33292 ft 435 kts 182°
2026-04-30 21:18 62.00865 10.81951 33294 ft 434 kts 181°
2026-04-30 21:18 61.94842 10.83033 33155 ft 435 kts 181°
2026-04-30 21:19 61.91826 10.83574 32884 ft 435 kts 181°
2026-04-30 21:19 61.88820 10.84116 32607 ft 433 kts 181°
2026-04-30 21:19 61.85828 10.84657 32091 ft 430 kts 181°
2026-04-30 21:19 61.82852 10.85195 31554 ft 428 kts 181°
2026-04-30 21:20 61.79927 10.85724 31009 ft 427 kts 181°
2026-04-30 21:20 61.76976 10.86254 30480 ft 425 kts 181°
2026-04-30 21:20 61.74037 10.86778 29885 ft 423 kts 181°
2026-04-30 21:20 61.71115 10.87294 29354 ft 419 kts 181°
2026-04-30 21:21 61.68222 10.87799 28826 ft 415 kts 181°
2026-04-30 21:21 61.65358 10.88295 28306 ft 411 kts 181°
2026-04-30 21:21 61.59693 10.89284 27292 ft 405 kts 181°
2026-04-30 21:22 61.56891 10.89775 26795 ft 403 kts 181°
2026-04-30 21:22 61.48630 10.91235 25381 ft 396 kts 181°
2026-04-30 21:23 61.45891 10.91716 24934 ft 394 kts 181°
2026-04-30 21:23 61.43165 10.92189 24478 ft 392 kts 181°
2026-04-30 21:23 61.37764 10.93115 23535 ft 387 kts 181°
2026-04-30 21:24 61.35100 10.93579 23080 ft 382 kts 181°
2026-04-30 21:24 61.32468 10.94041 22625 ft 378 kts 181°
2026-04-30 21:24 61.29859 10.94498 22165 ft 373 kts 181°
2026-04-30 21:24 61.27291 10.94942 21708 ft 369 kts 181°
2026-04-30 21:25 61.22211 10.95802 20768 ft 363 kts 181°
2026-04-30 21:25 61.19713 10.96223 20296 ft 360 kts 181°
2026-04-30 21:25 61.17221 10.96644 19814 ft 358 kts 181°
2026-04-30 21:26 61.12322 10.97482 18871 ft 354 kts 181°
2026-04-30 21:26 61.09869 10.97905 18364 ft 352 kts 181°
2026-04-30 21:27 61.05092 10.98727 17405 ft 345 kts 181°
2026-04-30 21:27 61.02709 10.99133 16932 ft 342 kts 181°
2026-04-30 21:27 61.00347 10.99531 16452 ft 339 kts 181°
2026-04-30 21:28 60.95681 11.00311 15536 ft 334 kts 181°
2026-04-30 21:28 60.93366 11.00697 15077 ft 332 kts 181°
2026-04-30 21:28 60.88817 11.01455 14158 ft 328 kts 181°
2026-04-30 21:29 60.86554 11.01836 13669 ft 326 kts 181°
2026-04-30 21:29 60.79872 11.02959 12356 ft 319 kts 180°
2026-04-30 21:30 60.75407 11.03689 12275 ft 315 kts 180°
2026-04-30 21:31 60.68982 11.04764 11036 ft 309 kts 180°
2026-04-30 21:31 60.64722 11.05467 9958 ft 305 kts 180°
2026-04-30 21:32 60.60593 11.06157 9113 ft 293 kts 179°
2026-04-30 21:32 60.58577 11.06494 8634 ft 290 kts 179°
2026-04-30 21:32 60.56564 11.06832 8139 ft 289 kts 178°
2026-04-30 21:32 60.54620 11.07853 7656 ft 292 kts 160°
2026-04-30 21:33 60.52755 11.09484 7120 ft 292 kts 160°
2026-04-30 21:33 60.48999 11.12805 5940 ft 295 kts 159°
2026-04-30 21:33 60.47146 11.14442 5425 ft 292 kts 159°
2026-04-30 21:34 60.45323 11.16045 4959 ft 288 kts 159°
2026-04-30 21:34 60.41751 11.19080 4454 ft 262 kts 167°
2026-04-30 21:34 60.40016 11.19517 4347 ft 243 kts 185°
2026-04-30 21:35 60.38402 11.18935 4103 ft 231 kts 200°
2026-04-30 21:35 60.36928 11.18070 3820 ft 225 kts 199°
2026-04-30 21:35 60.35389 11.17170 3517 ft 220 kts 199°
2026-04-30 21:35 60.33941 11.16326 3229 ft 213 kts 199°
2026-04-30 21:36 60.32537 11.15509 2980 ft 206 kts 199°
2026-04-30 21:36 60.31186 11.14724 2686 ft 198 kts 199°
2026-04-30 21:37 60.27542 11.12610 1961 ft 158 kts 198°
2026-04-30 21:37 60.26558 11.12040 1741 ft 137 kts 199°
2026-04-30 21:37 60.25673 11.11520 1521 ft 129 kts 197°
2026-04-30 21:37 60.24829 11.11029 1345 ft 124 kts 196°
2026-04-30 21:38 60.24003 11.10555 1186 ft 123 kts 195°
2026-04-30 21:38 60.23186 11.10080 1021 ft 122 kts 196°
2026-04-30 21:38 60.22386 11.09618 852 ft 121 kts 195°
2026-04-30 21:38 60.21565 11.09141 719 ft 121 kts 195°
2026-04-30 21:39 60.20817 11.08713 683 ft 93 kts 196°
2026-04-30 21:39 60.20351 11.08446 685 ft 54 kts 195°
2026-04-30 21:39 60.19982 11.08232 683 ft 49 kts 196°
2026-04-30 21:39 60.19771 11.08119 688 ft 21 kts 189°
2026-04-30 21:40 60.19638 11.08125 686 ft 11 kts 167°
2026-04-30 21:40 60.19581 11.08219 689 ft 9 kts 120°
2026-04-30 21:40 60.19564 11.08332 685 ft 5 kts 105°
2026-04-30 21:40 60.19554 11.08400 690 ft 2 kts 106°
2026-04-30 21:41 60.19547 11.08450 686 ft 6 kts 107°
2026-04-30 21:41 60.19533 11.08547 689 ft 9 kts 107°